COSMOS 1275 DEB

Satellite information

Favourite Embed

Satellite Type and Status

DEBRISIN ORBIT

Key statistics

Satellite COSMOS 1275 DEB at a glance.

Uptime

16102

Days in orbit

Revolutions

≈ 14.2

Per day

Orbit

LEO

Low Earth Orbit

Inclination

82.8

Latest

Satellite identification and parameters

Extended collection of information and parameters for COSMOS 1275 DEB.

Object identification

Identified? True

Debris? True

Object name: COSMOS 1275 DEB

International designator: 1981-053HQ

Object number (NORAD): 14357

Object ID (CCSDS): 14357

Country: COMMONWEALTH OF INDEPENDENT STATES (CIS)

Current information (Y/N): Y

RCS size: SMALL

Orbital parameters

Period: 101.689 minutes

Inclination: 82.8449 deg

SMA: 7216.758 km

Apoapsis: 866.729 km

Periapsis: 810.516 km

RAAN: 270.8601 deg

Eccentricy: 0.0038946

Argument of periapsis: 354.1172 deg

Mean anomaly: 73.7385 deg

Mean motion: 14.16085844 rev/day

Mean motion (dot): 0.00001217 rev/day2

B* drag term: 0.00060359 1/REarth

Two-line elements (TLE)

Creation date: July 4, 2025, 6:39 p.m.

Reference frame: TEME

Reference center: EARTH

Epoch: July 4, 2025, 2:40 p.m. UTC

TLE line 0: 0 COSMOS 1275 DEB

TLE line 1: 1 14357U 81053HQ 25185.61170235 .00001217 00000-0 60359-3 0 9990

TLE line 2: 2 14357 82.8449 270.8601 0038946 354.1172 73.7385 14.16085844154569

Live tracking on map

Real-time ground track for satellite COSMOS 1275 DEB.

In-orbit conjunctions

A list of the most updated potential collisions computed for object COSMOS 1275 DEB.

Target Orbit TCA Probability of collision Miss distance Type
FENGYUN 1C DEB SSO 2025-04-29 08:01:17 0.0003903112 68.0 (m) DEBRIS
GEOS 3 SSO 2025-04-27 22:11:16 0.0005377763 388.0 (m) PAYLOAD
SPOT 3 SSO 2024-12-12 08:41:02 0.0001637362 237.0 (m) PAYLOAD

Associated space launch

Navigation satellite providing location information for the Tsiklon-B navigation system

COSMOS 1275 DEB was lifted into orbit during the mission ‘Kosmos-3M | Parus 27’, on board a Kosmos-3M space rocket.

The launch took place on June 4, 1981, 3:41 p.m. from 132/2.

For more information about the launch, click the button.

Launch to space Kosmos-3M | Parus 27
Kosmos-3M | Parus 27

Agency: N/A

Status: Launch Successful

Launch date: June 4, 1981, 3:41 p.m. UTC

Rocket: Kosmos-3M

Launch pad: 132/2

Location: Plesetsk Cosmodrome, Russian Federation

...

Latest news about this satellite

There are no fresh news available about this satellite. Check back as we update our databases every day.


Newsletter sign-up

Weekly statistics, charts and insights to help you stay on top of the space industry.